| time (UTC) | temp F | wind direction | speed MPH | gust MPH | rain 1hr in | rain 24hr in | rain mn in | humidity % | barometer mb |
| 20260506172532 | 58 | 138 | 1.0 | 3.0 | 0.05 | 0.23 | 0.23 | 98 | 1005.4 |
| 20260506172028 | 59 | 166 | 1.0 | 1.0 | 0.12 | 0.23 | 0.23 | 98 | 1005.1 |
| 20260506171525 | 58 | 133 | 0.0 | 1.0 | 0.07 | 0.22 | 0.22 | 97 | 1005.3 |
| 20260506171023 | 58 | 119 | 0.0 | 5.0 | 0.05 | 0.21 | 0.21 | 97 | 1005.2 |
| 20260506170520 | 58 | 64 | 1.0 | 1.0 | 0.05 | 0.21 | 0.21 | 97 | 1005.3 |
| 20260506170017 | 58 | 70 | 2.0 | 6.0 | 0.00 | 0.20 | 0.20 | 97 | 1005.4 |
| 20260506165515 | 58 | 91 | 0.0 | 6.0 | 0.07 | 0.20 | 0.20 | 97 | 1005.5 |
| 20260506165006 | 58 | 110 | 0.0 | 3.0 | 0.07 | 0.20 | 0.20 | 97 | 1005.4 |
| 20260506164503 | 58 | 114 | 1.0 | 3.0 | 0.05 | 0.19 | 0.19 | 97 | 1005.2 |
| 20260506164000 | 58 | 89 | 1.0 | 3.0 | 0.12 | 0.19 | 0.19 | 97 | 1005.6 |
| 20260506163455 | 58 | 155 | 1.0 | 3.0 | 0.07 | 0.18 | 0.18 | 97 | 1005.3 |
| 20260506162949 | 58 | 118 | 0.0 | 3.0 | 0.00 | 0.17 | 0.17 | 97 | 1005.5 |
| 20260506162448 | 58 | 113 | 1.0 | 2.0 | 0.05 | 0.17 | 0.17 | 97 | 1005.4 |
| 20260506161940 | 59 | 11 | 2.0 | 6.0 | 0.00 | 0.16 | 0.16 | 97 | 1005.4 |
| 20260506161438 | 59 | 122 | 1.0 | 3.0 | 0.00 | 0.16 | 0.16 | 97 | 1005.4 |
| 20260506160934 | 59 | 91 | 1.0 | 2.0 | 0.07 | 0.16 | 0.16 | 97 | 1005.6 |
| 20260506160432 | 59 | 154 | 1.0 | 1.0 | 0.07 | 0.16 | 0.16 | 96 | 1005.6 |
| 20260506155929 | 59 | 170 | 2.0 | 5.0 | 0.05 | 0.15 | 0.15 | 96 | 1005.4 |
| 20260506155426 | 59 | 81 | 0.0 | 2.0 | 0.17 | 0.15 | 0.15 | 96 | 1005.7 |
| 20260506153548 | 59 | 169 | 1.0 | 2.0 | 0.05 | 0.10 | 0.10 | 95 | 1006.3 |
| 20260506153045 | 59 | 345 | 1.0 | 5.0 | 0.00 | 0.09 | 0.09 | 95 | 1006.1 |
| 20260506152542 | 60 | 122 | 0.0 | 2.0 | 0.07 | 0.09 | 0.09 | 95 | 1006.1 |
| 20260506152040 | 60 | 68 | 1.0 | 2.0 | 0.12 | 0.09 | 0.09 | 95 | 1005.9 |
| 20260506151538 | 60 | 140 | 0.0 | 2.0 | 0.05 | 0.08 | 0.08 | 95 | 1006.0 |
| 20260506151035 | 60 | 327 | 1.0 | 2.0 | 0.00 | 0.07 | 0.07 | 95 | 1005.8 |
| 20260506150531 | 60 | 138 | 1.0 | 1.0 | 0.07 | 0.07 | 0.07 | 95 | 1006.3 |
| 20260506150023 | 59 | 88 | 0.0 | 2.0 | 0.07 | 0.07 | 0.07 | 95 | 1006.1 |
| 20260506145519 | 59 | 123 | 0.0 | 1.0 | 0.00 | 0.06 | 0.06 | 95 | 1006.1 |
| 20260506145017 | 59 | 132 | 0.0 | 0.0 | 0.05 | 0.06 | 0.06 | 95 | 1006.0 |
| 20260506144513 | 59 | 121 | 0.0 | 1.0 | 0.05 | 0.06 | 0.06 | 94 | 1006.1 |
| 20260506144011 | 59 | 125 | 0.0 | 1.0 | 0.07 | 0.05 | 0.05 | 94 | 1006.3 |
| 20260506143509 | 59 | 100 | 1.0 | 1.0 | 0.00 | 0.04 | 0.04 | 94 | 1006.2 |
| 20260506143007 | 59 | 144 | 1.0 | 1.0 | 0.05 | 0.04 | 0.04 | 94 | 1006.3 |
| 20260506142504 | 59 | 113 | 0.0 | 1.0 | 0.07 | 0.03 | 0.03 | 93 | 1006.5 |
| 20260506142002 | 60 | 137 | 0.0 | 1.0 | 0.00 | 0.02 | 0.02 | 93 | 1006.6 |
| 20260506141500 | 59 | 142 | 0.0 | 2.0 | 0.00 | 0.02 | 0.02 | 92 | 1006.5 |
| 20260506140958 | 60 | 151 | 1.0 | 3.0 | 0.05 | 0.02 | 0.02 | 92 | 1006.3 |
| 20260506140455 | 60 | 272 | 1.0 | 2.0 | 0.05 | 0.02 | 0.02 | 91 | 1006.4 |
| 20260506135951 | 60 | 77 | 1.0 | 2.0 | 0.00 | 0.01 | 0.01 | 91 | 1006.6 |
| 20260506135449 | 60 | 119 | 0.0 | 1.0 | 0.00 | 0.01 | 0.01 | 91 | 1006.5 |
| 20260506134945 | 60 | 123 | 0.0 | 2.0 | 0.07 | 0.01 | 0.01 | 90 | 1006.5 |
| 20260506134441 | 60 | 102 | 0.0 | 1.0 | 0.07 | 0.01 | 0.01 | 89 | 1006.5 |
| 20260506133938 | 60 | 119 | 0.0 | 1.0 | 0.00 | 0.00 | 0.00 | 88 | 1006.6 |
| 20260506133435 | 61 | 128 | 0.0 | 2.0 | 0.00 | 0.00 | 0.00 | 88 | 1006.6 |
| 20260506132931 | 61 | 116 | 0.0 | 0.0 | 0.00 | 0.00 | 0.00 | 87 | 1006.9 |
| 20260506132429 | 61 | 79 | 1.0 | 1.0 | 0.00 | 0.00 | 0.00 | 86 | 1006.7 |
| 20260506131926 | 61 | 101 | 1.0 | 2.0 | 0.00 | 0.00 | 0.00 | 85 | 1006.8 |
| 20260506131423 | 62 | 184 | 1.0 | 3.0 | 0.00 | 0.00 | 0.00 | 83 | 1006.6 |
| 20260506130920 | 62 | 136 | 1.0 | 5.0 | 0.00 | 0.00 | 0.00 | 81 | 1006.6 |
| 20260506130416 | 63 | 3 | 4.0 | 6.0 | 0.00 | 0.00 | 0.00 | 80 | 1006.7 |
| 20260506125914 | 63 | 161 | 2.0 | 7.0 | 0.00 | 0.00 | 0.00 | 78 | 1006.5 |
| 20260506125412 | 63 | 156 | 1.0 | 3.0 | 0.00 | 0.00 | 0.00 | 78 | 1006.3 |
| 20260506124910 | 63 | 143 | 1.0 | 1.0 | 0.00 | 0.00 | 0.00 | 79 | 1006.3 |
| 20260506124407 | 63 | 155 | 3.0 | 5.0 | 0.00 | 0.00 | 0.00 | 79 | 1006.4 |
| 20260506123905 | 63 | 176 | 2.0 | 2.0 | 0.00 | 0.00 | 0.00 | 79 | 1006.3 |
| 20260506123403 | 63 | 143 | 0.0 | 2.0 | 0.00 | 0.00 | 0.00 | 80 | 1006.4 |
| 20260506122900 | 63 | 106 | 1.0 | 1.0 | 0.00 | 0.00 | 0.00 | 79 | 1006.3 |
| 20260506122356 | 63 | 134 | 0.0 | 2.0 | 0.00 | 0.00 | 0.00 | 79 | 1006.2 |
| 20260506121855 | 63 | 112 | 1.0 | 1.0 | 0.00 | 0.00 | 0.00 | 79 | 1006.3 |
| 20260506121352 | 63 | 80 | 1.0 | 3.0 | 0.00 | 0.00 | 0.00 | 79 | 1006.4 |
| 20260506120848 | 63 | 33 | 1.0 | 5.0 | 0.00 | 0.00 | 0.00 | 78 | 1006.5 |
| 20260506120346 | 63 | 117 | 0.0 | 1.0 | 0.00 | 0.00 | 0.00 | 79 | 1006.5 |
| 20260506115843 | 63 | 151 | 1.0 | 2.0 | 0.00 | 0.00 | 0.00 | 78 | 1006.6 |
| 20260506115342 | 63 | 104 | 0.0 | 0.0 | 0.00 | 0.00 | 0.00 | 79 | 1006.6 |
| 20260506114839 | 63 | 178 | 1.0 | 2.0 | 0.00 | 0.00 | 0.00 | 78 | 1006.7 |
| 20260506114337 | 62 | 153 | 1.0 | 3.0 | 0.00 | 0.00 | 0.00 | 78 | 1006.5 |
| 20260506113835 | 63 | 169 | 1.0 | 3.0 | 0.00 | 0.00 | 0.00 | 78 | 1006.5 |
| 20260506113332 | 62 | 103 | 3.0 | 3.0 | 0.00 | 0.00 | 0.00 | 78 | 1006.6 |
| 20260506112829 | 62 | 31 | 1.0 | 2.0 | 0.00 | 0.00 | 0.00 | 78 | 1006.5 |
| 20260506112326 | 63 | 114 | 0.0 | 1.0 | 0.00 | 0.00 | 0.00 | 78 | 1006.8 |
| 20260506111824 | 63 | 92 | 0.0 | 2.0 | 0.00 | 0.00 | 0.00 | 78 | 1006.7 |
| 20260506111322 | 63 | 129 | 1.0 | 7.0 | 0.00 | 0.00 | 0.00 | 78 | 1006.6 |
| 20260506110819 | 63 | 112 | 0.0 | 2.0 | 0.00 | 0.00 | 0.00 | 78 | 1006.5 |
| 20260506110316 | 62 | 334 | 4.0 | 7.0 | 0.00 | 0.00 | 0.00 | 77 | 1006.4 |
| 20260506105812 | 63 | 216 | 1.0 | 3.0 | 0.00 | 0.00 | 0.00 | 77 | 1006.2 |
| 20260506105309 | 62 | 156 | 1.0 | 3.0 | 0.00 | 0.00 | 0.00 | 77 | 1006.3 |
| 20260506104807 | 62 | 110 | 0.0 | 2.0 | 0.00 | 0.00 | 0.00 | 77 | 1006.3 |
| 20260506104304 | 62 | 88 | 1.0 | 2.0 | 0.00 | 0.00 | 0.00 | 77 | 1006.1 |
| 20260506103802 | 62 | 108 | 0.0 | 3.0 | 0.00 | 0.00 | 0.00 | 77 | 1006.2 |
| 20260506103259 | 62 | 100 | 0.0 | 1.0 | 0.00 | 0.00 | 0.00 | 77 | 1006.1 |
| 20260506102756 | 62 | 103 | 0.0 | 2.0 | 0.00 | 0.00 | 0.00 | 76 | 1006.0 |
| 20260506102254 | 62 | 115 | 0.0 | 2.0 | 0.00 | 0.00 | 0.00 | 76 | 1005.9 |
| 20260506101751 | 62 | 359 | 2.0 | 2.0 | 0.00 | 0.00 | 0.00 | 76 | 1006.0 |
| 20260506101247 | 62 | 97 | 0.0 | 2.0 | 0.00 | 0.00 | 0.00 | 76 | 1006.0 |
| 20260506100745 | 62 | 177 | 2.0 | 5.0 | 0.00 | 0.00 | 0.00 | 76 | 1006.1 |
| 20260506100243 | 62 | 158 | 1.0 | 3.0 | 0.00 | 0.00 | 0.00 | 76 | 1006.2 |
| 20260506095742 | 62 | 99 | 0.0 | 2.0 | 0.00 | 0.00 | 0.00 | 75 | 1006.1 |
| 20260506095238 | 62 | 77 | 1.0 | 1.0 | 0.00 | 0.00 | 0.00 | 75 | 1006.0 |
| 20260506094735 | 62 | 111 | 1.0 | 2.0 | 0.00 | 0.00 | 0.00 | 75 | 1006.1 |
| 20260506094233 | 62 | 211 | 2.0 | 5.0 | 0.00 | 0.00 | 0.00 | 75 | 1005.9 |
| 20260506093732 | 62 | 169 | 0.0 | 2.0 | 0.00 | 0.00 | 0.00 | 74 | 1006.2 |
| 20260506093228 | 62 | 31 | 1.0 | 2.0 | 0.00 | 0.00 | 0.00 | 74 | 1006.1 |
| 20260506092726 | 62 | 122 | 0.0 | 2.0 | 0.00 | 0.00 | 0.00 | 74 | 1006.0 |
| 20260506092224 | 62 | 84 | 1.0 | 1.0 | 0.00 | 0.00 | 0.00 | 73 | 1006.1 |
| 20260506091721 | 62 | 96 | 0.0 | 2.0 | 0.00 | 0.00 | 0.00 | 73 | 1005.9 |
| 20260506091218 | 62 | 125 | 0.0 | 2.0 | 0.00 | 0.00 | 0.00 | 73 | 1006.1 |
| 20260506090716 | 63 | 116 | 1.0 | 2.0 | 0.00 | 0.00 | 0.00 | 73 | 1006.1 |
| 20260506090212 | 63 | 158 | 1.0 | 1.0 | 0.00 | 0.00 | 0.00 | 72 | 1006.2 |
| 20260506085710 | 63 | 94 | 1.0 | 2.0 | 0.00 | 0.00 | 0.00 | 72 | 1006.3 |
| 20260506085205 | 63 | 172 | 1.0 | 3.0 | 0.00 | 0.00 | 0.00 | 72 | 1006.2 |
| 20260506084702 | 63 | 73 | 0.0 | 1.0 | 0.00 | 0.00 | 0.00 | 71 | 1006.4 |
| 20260506084159 | 63 | 113 | 1.0 | 2.0 | 0.00 | 0.00 | 0.00 | 71 | 1006.4 |
| 20260506083655 | 62 | 118 | 1.0 | 2.0 | 0.00 | 0.00 | 0.00 | 71 | 1006.4 |
| 20260506083154 | 62 | 179 | 0.0 | 3.0 | 0.00 | 0.00 | 0.00 | 71 | 1006.4 |
| 20260506082650 | 62 | 160 | 1.0 | 1.0 | 0.00 | 0.00 | 0.00 | 71 | 1006.4 |
| 20260506082145 | 62 | 140 | 1.0 | 2.0 | 0.00 | 0.00 | 0.00 | 71 | 1006.4 |
| 20260506081643 | 62 | 122 | 0.0 | 1.0 | 0.00 | 0.00 | 0.00 | 72 | 1006.3 |
| 20260506081141 | 62 | 110 | 0.0 | 1.0 | 0.00 | 0.00 | 0.00 | 72 | 1006.4 |
| 20260506080638 | 62 | 107 | 1.0 | 2.0 | 0.00 | 0.00 | 0.00 | 71 | 1006.2 |
| 20260506080135 | 62 | 123 | 0.0 | 1.0 | 0.00 | 0.00 | 0.00 | 71 | 1006.3 |
| 20260506073119 | 62 | 169 | 1.0 | 1.0 | 0.00 | 0.00 | 0.00 | 69 | 1006.6 |
| 20260506072615 | 62 | 118 | 0.0 | 1.0 | 0.00 | 0.00 | 0.00 | 69 | 1006.7 |
| 20260506072113 | 62 | 151 | 0.0 | 1.0 | 0.00 | 0.00 | 0.00 | 69 | 1006.7 |
| 20260506071611 | 62 | 72 | 1.0 | 1.0 | 0.00 | 0.00 | 0.00 | 68 | 1006.5 |
| 20260506071108 | 62 | 104 | 1.0 | 1.0 | 0.00 | 0.00 | 0.00 | 68 | 1006.4 |
| 20260506070605 | 63 | 107 | 0.0 | 2.0 | 0.00 | 0.00 | 0.00 | 67 | 1006.7 |
| 20260506062039 | 64 | 156 | 1.0 | 5.0 | 0.00 | 0.00 | 0.00 | 63 | 1007.0 |
| 20260506061535 | 64 | 97 | 0.0 | 2.0 | 0.00 | 0.00 | 0.00 | 63 | 1007.2 |
| 20260506061033 | 64 | 123 | 0.0 | 1.0 | 0.00 | 0.00 | 0.00 | 65 | 1007.2 |
| 20260506060531 | 64 | 50 | 1.0 | 2.0 | 0.00 | 0.00 | 0.00 | 65 | 1007.3 |
| 20260506051000 | 65 | 108 | 1.0 | 1.0 | 0.00 | 0.00 | 0.00 | 61 | 1007.2 |
| 20260506050458 | 65 | 99 | 0.0 | 2.0 | 0.00 | 0.00 | 0.00 | 61 | 1007.6 |
| 20260506044948 | 66 | 95 | 0.0 | 1.0 | 0.00 | 0.00 | 0.00 | 60 | 1007.5 |
| 20260506044446 | 65 | 128 | 0.0 | 3.0 | 0.00 | 0.00 | 0.00 | 59 | 1007.4 |
| 20260506043943 | 66 | 111 | 1.0 | 2.0 | 0.00 | 0.00 | 0.00 | 59 | 1007.5 |
| 20260506043440 | 66 | 39 | 1.0 | 2.0 | 0.00 | 0.00 | 0.00 | 59 | 1007.2 |
| 20260506042938 | 66 | 97 | 1.0 | 2.0 | 0.00 | 0.00 | 0.00 | 58 | 1007.5 |
| 20260506042437 | 66 | 134 | 0.0 | 6.0 | 0.00 | 0.00 | 0.00 | 57 | 1007.4 |
| 20260506041935 | 66 | 289 | 2.0 | 3.0 | 0.00 | 0.00 | 0.00 | 57 | 1007.6 |
| 20260506041432 | 66 | 130 | 1.0 | 3.0 | 0.00 | 0.00 | 0.00 | 57 | 1007.5 |
| 20260506040929 | 66 | 42 | 2.0 | 3.0 | 0.00 | 0.00 | 0.00 | 57 | 1007.5 |
| 20260506040427 | 66 | 59 | 2.0 | 2.0 | 0.00 | 0.00 | 0.00 | 56 | 1007.3 |
| 20260506035922 | 66 | 56 | 1.0 | 1.0 | 0.00 | 0.01 | 0.01 | 56 | 1007.3 |
| 20260506035420 | 67 | 102 | 0.0 | 1.0 | 0.00 | 0.01 | 0.01 | 56 | 1007.3 |
| 20260506034917 | 67 | 156 | 1.0 | 1.0 | 0.00 | 0.01 | 0.01 | 55 | 1007.6 |
| 20260506034414 | 67 | 130 | 1.0 | 1.0 | 0.00 | 0.01 | 0.01 | 54 | 1007.6 |
| 20260506033911 | 67 | 112 | 1.0 | 2.0 | 0.00 | 0.01 | 0.01 | 54 | 1007.2 |
| 20260506033408 | 67 | 139 | 1.0 | 2.0 | 0.00 | 0.01 | 0.01 | 53 | 1007.4 |
| 20260506032905 | 68 | 120 | 1.0 | 1.0 | 0.00 | 0.01 | 0.01 | 54 | 1007.4 |
| 20260506032402 | 68 | 157 | 2.0 | 5.0 | 0.00 | 0.01 | 0.01 | 52 | 1007.2 |
| 20260506031858 | 68 | 115 | 1.0 | 3.0 | 0.00 | 0.01 | 0.01 | 53 | 1007.4 |
| 20260506031356 | 68 | 120 | 0.0 | 3.0 | 0.00 | 0.01 | 0.01 | 52 | 1007.3 |
| 20260506030854 | 68 | 142 | 2.0 | 2.0 | 0.00 | 0.01 | 0.01 | 53 | 1007.4 |
| 20260506030352 | 68 | 95 | 0.0 | 7.0 | 0.00 | 0.01 | 0.01 | 52 | 1007.3 |
| 20260506025848 | 68 | 149 | 0.0 | 2.0 | 0.00 | 0.01 | 0.01 | 52 | 1007.4 |
| 20260506025344 | 68 | 103 | 1.0 | 2.0 | 0.00 | 0.01 | 0.01 | 52 | 1007.4 |
| 20260506024842 | 68 | 138 | 0.0 | 3.0 | 0.00 | 0.01 | 0.01 | 51 | 1007.4 |
| 20260506024338 | 68 | 175 | 1.0 | 2.0 | 0.00 | 0.01 | 0.01 | 51 | 1007.4 |
| 20260506023835 | 69 | 145 | 1.0 | 1.0 | 0.00 | 0.01 | 0.01 | 51 | 1007.5 |
| 20260506023331 | 69 | 125 | 0.0 | 1.0 | 0.00 | 0.01 | 0.01 | 50 | 1007.4 |
| 20260506022828 | 69 | 133 | 2.0 | 7.0 | 0.00 | 0.01 | 0.01 | 50 | 1007.4 |
| 20260506022326 | 69 | 117 | 2.0 | 2.0 | 0.00 | 0.01 | 0.01 | 49 | 1007.4 |
| 20260506021824 | 70 | 140 | 1.0 | 2.0 | 0.00 | 0.01 | 0.01 | 48 | 1007.3 |
| 20260506021321 | 70 | 117 | 1.0 | 3.0 | 0.00 | 0.01 | 0.01 | 47 | 1007.6 |
| 20260506020817 | 70 | 145 | 1.0 | 2.0 | 0.00 | 0.01 | 0.01 | 47 | 1007.3 |
| 20260506020315 | 71 | 128 | 1.0 | 2.0 | 0.00 | 0.01 | 0.01 | 47 | 1007.2 |
| 20260506015813 | 70 | 113 | 0.0 | 3.0 | 0.00 | 0.01 | 0.01 | 46 | 1007.3 |
| 20260506015310 | 71 | 179 | 1.0 | 2.0 | 0.00 | 0.01 | 0.01 | 46 | 1007.2 |
| 20260506014806 | 71 | 114 | 1.0 | 3.0 | 0.00 | 0.01 | 0.01 | 45 | 1007.0 |
| 20260506014303 | 71 | 91 | 1.0 | 3.0 | 0.00 | 0.01 | 0.01 | 46 | 1007.0 |
| 20260506013800 | 71 | 122 | 1.0 | 5.0 | 0.00 | 0.01 | 0.01 | 46 | 1006.8 |
| 20260506013257 | 71 | 136 | 0.0 | 1.0 | 0.00 | 0.01 | 0.01 | 46 | 1006.9 |
| 20260506012754 | 71 | 129 | 0.0 | 2.0 | 0.00 | 0.01 | 0.01 | 46 | 1006.9 |
| 20260506012251 | 71 | 105 | 0.0 | 2.0 | 0.00 | 0.01 | 0.01 | 46 | 1006.9 |
| 20260506011748 | 71 | 42 | 1.0 | 3.0 | 0.00 | 0.01 | 0.01 | 46 | 1006.6 |
| 20260506011244 | 70 | 154 | 1.0 | 2.0 | 0.00 | 0.01 | 0.01 | 46 | 1006.5 |
| 20260506010743 | 71 | 133 | 1.0 | 6.0 | 0.00 | 0.01 | 0.01 | 46 | 1006.8 |
| 20260506010239 | 71 | 141 | 1.0 | 2.0 | 0.00 | 0.01 | 0.01 | 46 | 1006.6 |
| 20260506005737 | 71 | 181 | 1.0 | 2.0 | 0.00 | 0.01 | 0.01 | 45 | 1006.7 |
| 20260506005233 | 71 | 172 | 3.0 | 5.0 | 0.00 | 0.01 | 0.01 | 44 | 1006.6 |
| 20260506004729 | 71 | 182 | 1.0 | 3.0 | 0.00 | 0.01 | 0.01 | 46 | 1006.6 |
| 20260506004227 | 72 | 101 | 1.0 | 2.0 | 0.00 | 0.01 | 0.01 | 44 | 1006.5 |
| 20260506003723 | 72 | 110 | 0.0 | 2.0 | 0.00 | 0.01 | 0.01 | 44 | 1006.4 |
| 20260506003220 | 73 | 186 | 2.0 | 3.0 | 0.00 | 0.01 | 0.01 | 43 | 1006.5 |
| 20260506002715 | 73 | 318 | 1.0 | 3.0 | 0.00 | 0.01 | 0.01 | 43 | 1006.4 |
| 20260506002212 | 73 | 77 | 3.0 | 5.0 | 0.00 | 0.01 | 0.01 | 42 | 1006.3 |
| 20260506001708 | 73 | 13 | 2.0 | 6.0 | 0.00 | 0.01 | 0.01 | 42 | 1006.2 |
| 20260506001205 | 73 | 97 | 1.0 | 7.0 | 0.00 | 0.01 | 0.01 | 43 | 1006.3 |
| 20260506000702 | 73 | 144 | 0.0 | 5.0 | 0.00 | 0.01 | 0.01 | 43 | 1006.2 |
| 20260506000200 | 73 | 93 | 1.0 | 2.0 | 0.00 | 0.01 | 0.01 | 43 | 1006.2 |
| 20260505235657 | 73 | 120 | 0.0 | 3.0 | 0.00 | 0.01 | 0.01 | 42 | 1006.1 |
| 20260505235155 | 73 | 211 | 2.0 | 5.0 | 0.00 | 0.01 | 0.01 | 43 | 1006.1 |
| 20260505234651 | 74 | 167 | 1.0 | 5.0 | 0.00 | 0.01 | 0.01 | 42 | 1006.1 |
| 20260505234149 | 74 | 296 | 2.0 | 3.0 | 0.00 | 0.01 | 0.01 | 43 | 1005.9 |
| 20260505233645 | 73 | 103 | 0.0 | 3.0 | 0.00 | 0.01 | 0.01 | 43 | 1006.1 |
| 20260505233143 | 74 | 66 | 1.0 | 1.0 | 0.00 | 0.01 | 0.01 | 43 | 1006.0 |
| 20260505232640 | 74 | 168 | 1.0 | 6.0 | 0.00 | 0.01 | 0.01 | 43 | 1006.2 |
| 20260505232138 | 74 | 149 | 0.0 | 5.0 | 0.00 | 0.01 | 0.01 | 43 | 1006.0 |
| 20260505231634 | 74 | 115 | 2.0 | 2.0 | 0.00 | 0.01 | 0.01 | 43 | 1006.1 |
| 20260505231133 | 74 | 114 | 0.0 | 2.0 | 0.00 | 0.01 | 0.01 | 43 | 1005.7 |
| 20260505230631 | 74 | 147 | 0.0 | 2.0 | 0.00 | 0.01 | 0.01 | 42 | 1005.9 |
| 20260505230127 | 74 | 136 | 0.0 | 1.0 | 0.00 | 0.01 | 0.01 | 42 | 1005.8 |
| 20260505225623 | 75 | 114 | 0.0 | 2.0 | 0.00 | 0.01 | 0.01 | 42 | 1005.6 |
| 20260505225120 | 74 | 156 | 2.0 | 5.0 | 0.00 | 0.01 | 0.01 | 41 | 1005.8 |
| 20260505224616 | 74 | 23 | 4.0 | 7.0 | 0.00 | 0.01 | 0.01 | 42 | 1005.6 |
| 20260505224114 | 75 | 114 | 1.0 | 3.0 | 0.00 | 0.01 | 0.01 | 41 | 1005.7 |
| 20260505223611 | 75 | 159 | 2.0 | 3.0 | 0.00 | 0.01 | 0.01 | 40 | 1005.7 |
| 20260505223107 | 75 | 174 | 1.0 | 6.0 | 0.00 | 0.01 | 0.01 | 41 | 1005.7 |
| 20260505222604 | 75 | 150 | 1.0 | 3.0 | 0.00 | 0.01 | 0.01 | 40 | 1005.6 |
| 20260505222100 | 75 | 116 | 2.0 | 5.0 | 0.00 | 0.01 | 0.01 | 40 | 1005.5 |
| 20260505221557 | 76 | 99 | 0.0 | 1.0 | 0.00 | 0.01 | 0.01 | 39 | 1005.6 |
| 20260505221053 | 76 | 209 | 2.0 | 5.0 | 0.00 | 0.01 | 0.01 | 39 | 1005.5 |
| 20260505220551 | 76 | 189 | 3.0 | 6.0 | 0.00 | 0.01 | 0.01 | 38 | 1005.6 |
| 20260505220048 | 76 | 122 | 4.0 | 5.0 | 0.00 | 0.01 | 0.01 | 38 | 1005.4 |
| 20260505215546 | 76 | 179 | 1.0 | 3.0 | 0.00 | 0.01 | 0.01 | 38 | 1005.4 |
| 20260505215044 | 76 | 32 | 3.0 | 8.0 | 0.00 | 0.01 | 0.01 | 38 | 1005.4 |
| 20260505214542 | 76 | 133 | 0.0 | 5.0 | 0.00 | 0.01 | 0.01 | 39 | 1005.3 |
| 20260505214038 | 77 | 157 | 1.0 | 6.0 | 0.00 | 0.01 | 0.01 | 38 | 1005.3 |
| 20260505213536 | 77 | 78 | 2.0 | 7.0 | 0.00 | 0.01 | 0.01 | 38 | 1005.2 |
| 20260505213032 | 77 | 47 | 2.0 | 3.0 | 0.00 | 0.01 | 0.01 | 38 | 1005.1 |
| 20260505212529 | 77 | 104 | 1.0 | 7.0 | 0.00 | 0.01 | 0.01 | 38 | 1005.3 |
| 20260505212026 | 78 | 161 | 3.0 | 7.0 | 0.00 | 0.01 | 0.01 | 37 | 1005.1 |
| 20260505211523 | 78 | 147 | 2.0 | 7.0 | 0.00 | 0.01 | 0.01 | 37 | 1005.1 |
| 20260505211020 | 78 | 118 | 1.0 | 6.0 | 0.00 | 0.01 | 0.01 | 38 | 1005.2 |
| 20260505210516 | 78 | 219 | 3.0 | 7.0 | 0.00 | 0.01 | 0.01 | 38 | 1004.9 |
| 20260505210014 | 79 | 152 | 1.0 | 7.0 | 0.00 | 0.01 | 0.01 | 37 | 1005.0 |
| 20260505205512 | 79 | 319 | 2.0 | 6.0 | 0.00 | 0.01 | 0.01 | 37 | 1005.1 |
| 20260505205009 | 80 | 157 | 4.0 | 6.0 | 0.00 | 0.01 | 0.01 | 36 | 1005.1 |
| 20260505204506 | 81 | 109 | 3.0 | 6.0 | 0.00 | 0.01 | 0.01 | 36 | 1004.9 |
| 20260505204003 | 82 | 56 | 1.0 | 6.0 | 0.00 | 0.01 | 0.01 | 32 | 1005.0 |
| 20260505203459 | 82 | 359 | 5.0 | 10.0 | 0.00 | 0.01 | 0.01 | 30 | 1005.0 |
| 20260505202956 | 82 | 312 | 3.0 | 7.0 | 0.00 | 0.01 | 0.01 | 28 | 1004.9 |
| 20260505202453 | 79 | 199 | 3.0 | 7.0 | 0.00 | 0.01 | 0.01 | 30 | 1004.9 |
| 20260505201949 | 79 | 206 | 3.0 | 6.0 | 0.00 | 0.01 | 0.01 | 30 | 1004.9 |
| 20260505201446 | 80 | 306 | 7.0 | 13.0 | 0.00 | 0.01 | 0.01 | 29 | 1005.1 |
| 20260505200943 | 80 | 169 | 5.0 | 7.0 | 0.00 | 0.01 | 0.01 | 30 | 1005.1 |
| 20260505200441 | 81 | 343 | 3.0 | 9.0 | 0.00 | 0.01 | 0.01 | 29 | 1005.0 |
| 20260505195936 | 81 | 165 | 3.0 | 9.0 | 0.00 | 0.01 | 0.01 | 29 | 1005.4 |
| 20260505195434 | 80 | 181 | 3.0 | 11.0 | 0.00 | 0.01 | 0.01 | 30 | 1005.3 |
| 20260505194931 | 81 | 148 | 5.0 | 8.0 | 0.00 | 0.01 | 0.01 | 28 | 1005.6 |
| 20260505194429 | 81 | 227 | 3.0 | 10.0 | 0.00 | 0.01 | 0.01 | 31 | 1005.6 |
| 20260505193928 | 81 | 197 | 2.0 | 9.0 | 0.00 | 0.01 | 0.01 | 30 | 1005.6 |
| 20260505193426 | 80 | 102 | 5.0 | 8.0 | 0.00 | 0.01 | 0.01 | 30 | 1005.5 |
| 20260505192924 | 80 | 117 | 6.0 | 9.0 | 0.00 | 0.01 | 0.01 | 29 | 1005.6 |
| 20260505192422 | 81 | 73 | 2.0 | 9.0 | 0.00 | 0.01 | 0.01 | 27 | 1005.8 |
| 20260505191919 | 82 | 172 | 5.0 | 7.0 | 0.00 | 0.01 | 0.01 | 26 | 1005.8 |
| 20260505191418 | 82 | 240 | 3.0 | 10.0 | 0.00 | 0.01 | 0.01 | 26 | 1005.8 |
| 20260505190914 | 82 | 321 | 3.0 | 10.0 | 0.00 | 0.01 | 0.01 | 27 | 1005.6 |
| 20260505190410 | 82 | 199 | 3.0 | 11.0 | 0.00 | 0.01 | 0.01 | 28 | 1005.8 |
| 20260505185905 | 81 | 171 | 1.0 | 6.0 | 0.00 | 0.01 | 0.01 | 28 | 1005.8 |
| 20260505185403 | 82 | 269 | 2.0 | 8.0 | 0.00 | 0.01 | 0.01 | 31 | 1005.9 |
| 20260505184858 | 82 | 4 | 4.0 | 5.0 | 0.00 | 0.01 | 0.01 | 31 | 1006.0 |
| 20260505184355 | 82 | 188 | 3.0 | 6.0 | 0.00 | 0.01 | 0.01 | 31 | 1005.6 |
| 20260505183852 | 82 | 266 | 4.0 | 8.0 | 0.00 | 0.01 | 0.01 | 34 | 1005.9 |
| 20260505183349 | 82 | 239 | 2.0 | 11.0 | 0.00 | 0.01 | 0.01 | 31 | 1006.0 |
| 20260505182846 | 81 | 206 | 4.0 | 8.0 | 0.00 | 0.01 | 0.01 | 33 | 1006.1 |
| 20260505182343 | 80 | 294 | 2.0 | 3.0 | 0.00 | 0.01 | 0.01 | 34 | 1006.1 |
| 20260505181840 | 81 | 178 | 2.0 | 8.0 | 0.00 | 0.01 | 0.01 | 34 | 1006.3 |
| 20260505181337 | 81 | 190 | 1.0 | 3.0 | 0.00 | 0.01 | 0.01 | 36 | 1006.2 |
| 20260505180833 | 80 | 113 | 2.0 | 6.0 | 0.00 | 0.01 | 0.01 | 36 | 1006.5 |
| 20260505180330 | 81 | 306 | 2.0 | 5.0 | 0.00 | 0.01 | 0.01 | 38 | 1006.5 |
| 20260505175826 | 81 | 231 | 3.0 | 10.0 | 0.00 | 0.01 | 0.01 | 36 | 1006.5 |
| 20260505175323 | 80 | 135 | 2.0 | 7.0 | 0.00 | 0.01 | 0.01 | 36 | 1006.5 |
| 20260505174819 | 81 | 121 | 2.0 | 7.0 | 0.00 | 0.01 | 0.01 | 34 | 1006.9 |
| 20260505174317 | 80 | 352 | 5.0 | 8.0 | 0.00 | 0.01 | 0.01 | 37 | 1006.6 |
| 20260505173813 | 79 | 337 | 5.0 | 9.0 | 0.00 | 0.01 | 0.01 | 35 | 1006.7 |
| 20260505173309 | 79 | 86 | 7.0 | 13.0 | 0.00 | 0.01 | 0.01 | 37 | 1006.7 |
| 20260505172807 | 79 | 243 | 2.0 | 5.0 | 0.00 | 0.01 | 0.01 | 38 | 1006.7 |